Theta_e
358 357 355 354 356 359 356 354 352 351 342 339 334 334 331 325 325 325 326 338 333 336 334 332 335 338 339 342 345 348 347 346 345 345 345 345 346 346 347 349 351 352 351
358 357 355 356 354 357 358 356 352 351 350 345 340 334 330 328 328 329 325 332 338 338 338 335 333 335 336 337 341 345 345 343 342 341 341 340 341 341 341 342 344 345 347
360 358 356 352 352 356 356 356 354 352 348 346 341 335 330 329 327 326 328 325 329 341 340 340 336 334 334 335 337 341 344 341 341 338 338 338 338 337 337 337 337 338 340
358 353 352 351 354 354 353 353 350 347 345 340 336 333 331 329 328 326 326 327 328 330 338 341 339 337 335 335 338 340 342 341 339 337 337 337 336 335 335 335 335 335 336
352 352 351 353 354 351 349 349 348 345 342 340 336 333 332 332 329 327 326 326 328 329 330 338 340 340 340 338 338 339 339 339 339 337 335 335 334 333 332 332 333 333 334
350 351 350 351 351 349 347 346 345 345 342 340 336 333 334 332 329 328 329 329 330 330 332 330 332 333 341 341 339 338 338 337 336 336 334 332 331 330 330 331 331 332 332
346 347 346 345 345 346 346 343 341 339 338 338 331 325 326 331 329 331 332 330 329 329 328 330 332 329 333 340 340 340 339 337 335 334 330 329 329 329 329 329 329 330 331
341 340 341 340 342 341 342 343 340 335 333 334 328 325 320 323 328 326 327 327 327 327 327 330 328 329 329 330 333 340 339 336 333 330 328 327 326 327 327 327 327 328 329
329 339 339 341 340 338 336 338 338 336 329 332 333 327 319 315 320 325 328 327 326 330 328 328 329 329 329 329 332 331 334 332 330 327 326 325 324 325 325 326 326 327 329
328 325 328 331 332 330 329 330 333 332 330 326 329 329 329 326 317 315 322 325 326 322 319 322 322 321 320 323 329 329 329 326 324 323 322 322 323 323 324 324 324 326 327
320 321 322 321 321 323 323 324 325 326 329 327 326 325 326 325 325 318 313 318 322 322 318 318 317 320 320 322 323 323 323 323 321 320 320 321 322 322 322 323 322 323 325
314 317 313 316 316 317 318 319 320 322 323 325 326 324 322 321 321 318 315 314 311 314 316 317 318 319 318 319 324 322 319 319 318 317 317 318 319 320 321 320 321 321 322
309 309 309 310 310 312 313 315 317 318 321 322 323 323 323 322 319 316 312 310 307 311 311 311 316 316 318 317 319 319 320 316 315 315 315 315 316 317 316 317 317 318 318
305 307 307 307 309 310 312 313 314 315 317 320 320 321 322 317 316 315 311 307 304 305 306 307 310 312 315 317 319 318 315 316 313 312 312 311 311 311 311 312 312 312 312
305 307 308 308 309 310 312 313 312 312 313 317 318 318 318 318 316 315 312 311 304 299 300 305 306 312 314 315 315 314 312 314 313 311 310 309 309 308 308 309 308 308 308
307 308 309 310 310 308 313 313 312 311 312 315 316 317 318 316 315 315 314 312 310 306 301 306 308 310 311 312 313 311 311 313 312 311 311 310 309 308 307 307 307 307 307
309 308 309 310 309 310 309 312 312 313 313 314 314 314 312 313 312 312 312 312 309 309 303 305 307 307 307 307 308 309 310 309 309 312 311 310 309 308 307 307 307 306 306
308 309 309 310 309 309 308 310 309 311 311 311 311 312 312 313 311 311 310 309 307 306 303 299 302 303 303 306 307 307 309 311 309 310 312 311 310 309 308 307 307 305 305
308 309 309 308 309 310 311 310 309 309 311 311 311 310 309 309 307 306 306 304 304 304 304 302 300 304 304 305 304 305 307 307 310 312 312 311 310 310 309 307 307 305 305
308 308 307 306 307 308 307 307 308 310 311 310 309 308 306 305 303 303 304 304 304 304 302 302 302 301 302 304 304 301 301 304 305 309 310 308 309 310 309 308 307 306 305
306 306 305 305 305 307 305 305 308 309 308 307 306 306 305 305 305 304 302 302 303 301 302 301 299 300 300 300 299 302 301 302 303 305 304 304 303 303 305 307 307 305 303
305 306 306 306 305 303 302 304 307 306 306 307 306 306 307 307 308 307 306 306 305 301 300 300 301 298 299 299 299 299 299 298 296 304 302 301 304 303 304 304 304 302 302
307 307 307 306 306 304 300 299 301 308 307 308 307 305 304 306 303 302 303 305 307 306 306 302 301 300 300 300 300 299 299 299 299 303 302 299 302 299 302 303 302 301 301
309 308 308 308 307 304 299 298 299 308 309 308 305 304 303 303 302 299 300 303 305 306 306 307 303 303 302 302 301 301 300 301 302 303 303 296 300 298 301 303 302 301 301
310 310 311 306 307 303 297 297 299 307 308 306 304 304 303 301 298 297 302 303 304 305 306 304 303 301 300 300 301 300 299 297 296 298 301 297 297 296 298 301 302 301 300
311 307 309 308 304 305 297 296 297 304 304 303 306 306 299 299 296 296 298 301 300 300 303 302 304 303 303 304 304 303 301 297 297 296 298 295 296 295 293 299 299 301 300
Wind_Speed
4 2 3 4 3 1 2 2 2 5 4 3 5 1 1 2 2 2 2 5 7 3 6 3 3 6 6 7 8 5 4 4 5 6 7 7 6 7 8 9 9 13 17
3 3 3 5 0 2 2 3 4 2 3 3 5 5 5 4 1 2 2 3 8 12 11 10 6 6 6 8 7 6 1 1 2 4 5 6 7 7 8 9 11 12 10
2 2 5 4 3 1 2 4 3 3 2 4 6 3 2 2 2 2 5 4 6 13 13 11 10 10 9 8 8 7 4 2 2 3 5 6 6 7 9 10 11 12 13
1 4 4 4 5 4 4 4 4 3 2 3 4 3 3 3 5 6 5 5 5 5 10 12 11 11 10 9 10 8 6 5 4 3 5 7 8 9 10 12 14 14 14
10 5 4 4 2 3 3 3 1 2 3 2 4 5 6 5 6 8 8 8 9 5 6 14 14 12 13 13 13 10 9 7 6 5 5 8 10 12 13 15 15 16 17
9 6 6 5 3 3 4 3 3 1 3 3 6 5 7 7 7 8 8 10 7 6 6 8 9 8 17 15 12 13 11 8 8 7 4 8 10 13 15 16 18 18 18
11 8 6 7 7 5 3 4 3 4 3 4 3 4 6 7 9 8 6 4 5 7 7 6 4 4 2 16 16 16 13 15 10 7 1 5 9 14 17 18 19 20 21
6 6 6 7 8 7 7 4 3 3 3 4 4 3 4 7 6 11 7 5 9 8 7 7 7 6 3 5 11 19 18 9 6 2 3 5 8 13 17 20 21 22 23
12 7 8 5 5 6 7 8 5 6 6 5 7 5 4 5 7 3 4 6 4 5 3 6 7 5 5 2 5 4 3 9 7 3 3 7 9 13 16 19 20 21 21
10 12 11 11 9 7 9 10 10 8 7 7 7 8 10 7 8 9 8 7 7 14 16 15 13 14 16 11 16 6 11 8 2 0 3 6 10 13 16 18 20 20 20
12 12 12 11 10 8 7 7 9 9 7 6 6 6 9 8 6 3 4 6 2 4 4 8 10 6 10 10 8 9 7 6 2 3 6 8 11 13 14 16 17 16 16
10 10 15 13 14 13 11 8 8 7 8 8 8 7 6 4 7 5 3 3 3 5 4 1 2 4 5 5 7 4 2 4 5 7 8 10 11 13 14 11 13 15 17
10 12 15 13 12 12 12 12 10 10 7 7 7 8 5 5 5 4 4 3 3 2 4 7 2 3 3 0 0 6 12 7 4 7 10 10 10 8 8 10 12 13 14
9 13 11 12 14 14 12 11 10 9 9 6 10 8 3 3 1 3 4 0 4 4 5 6 5 4 2 4 4 6 5 10 4 2 5 5 5 6 8 8 9 11 12
8 11 10 10 12 12 12 11 8 10 10 7 7 7 1 2 1 2 2 2 2 5 8 4 6 5 3 3 5 3 5 9 7 4 3 2 4 5 6 7 7 8 10
8 11 11 10 10 13 11 12 8 9 10 7 6 6 3 1 2 3 2 3 3 5 6 5 5 5 5 3 5 4 6 10 11 7 7 8 8 7 6 7 7 7 9
9 10 9 9 9 8 11 12 10 8 9 7 6 6 4 2 3 4 4 3 3 3 6 5 4 6 5 6 6 5 6 5 4 10 11 12 9 9 8 9 8 8 8
8 9 7 8 8 9 8 8 9 9 9 7 6 7 8 6 6 5 4 5 4 5 4 7 5 4 5 6 6 7 6 6 5 6 15 12 11 10 9 10 9 8 6
11 8 8 9 10 9 6 8 8 9 7 10 10 10 9 9 7 6 5 5 5 5 4 3 3 2 2 3 5 5 5 5 5 13 13 15 12 12 11 11 9 7 4
13 13 13 13 12 12 10 11 10 10 8 10 8 8 9 9 8 8 5 4 4 4 4 5 4 2 2 4 3 4 7 7 6 6 5 6 6 12 12 12 10 9 3
11 12 10 11 11 11 9 9 10 10 9 9 9 8 6 5 6 5 4 5 5 4 3 3 4 4 3 3 3 3 3 5 7 2 3 4 2 0 3 9 8 3 4
8 8 8 10 11 10 15 16 10 7 7 5 6 5 4 6 9 6 9 9 7 4 4 3 2 3 4 3 4 6 6 5 4 2 3 3 2 2 3 3 6 2 4
7 7 8 9 9 9 12 13 15 4 4 2 3 6 8 4 9 8 11 13 10 10 10 4 5 4 5 5 5 8 8 7 6 5 3 3 1 2 3 3 4 3 4
4 4 5 6 6 7 12 12 13 4 4 3 8 7 8 8 7 8 8 8 7 5 6 4 3 5 4 5 5 5 8 7 6 3 4 3 2 1 2 3 5 3 3
4 3 4 7 8 7 12 14 13 6 3 8 6 4 6 7 11 12 8 10 8 6 3 4 7 9 10 11 8 4 6 7 5 2 5 2 3 3 3 1 3 2 4
3 3 1 5 6 5 11 16 16 9 9 5 3 2 5 4 10 12 8 6 6 6 7 8 6 5 6 6 3 3 4 5 4 3 3 4 4 4 3 1 2 1 3
Wind_Direction
68 17 22 329 308 94 15 11 166 145 179 179 226 121 39 250 327 25 74 139 112 189 200 210 298 309 306 311 312 307 353 5 20 20 17 13 13 359 350 338 307 273 263
23 348 243 226 176 21 357 21 344 330 134 203 229 208 208 216 233 24 261 141 188 205 209 197 176 245 275 283 287 293 255 334 14 15 2 356 359 353 346 336 326 319 320
357 258 293 320 316 68 122 241 240 176 179 219 239 212 248 292 299 264 258 209 225 223 212 198 202 212 233 243 255 259 250 283 297 348 338 334 340 340 335 324 319 317 313
33 326 325 15 13 358 346 335 326 15 360 11 333 330 304 224 245 238 240 239 232 211 212 217 208 221 228 238 246 237 237 259 258 311 324 326 332 334 329 321 316 312 307
15 8 335 334 21 319 291 280 237 185 276 228 257 235 240 241 229 239 231 238 239 231 182 201 213 226 229 225 236 242 232 240 263 277 317 330 329 329 325 319 313 309 307
10 358 331 350 339 336 313 345 336 1 257 272 275 275 227 238 235 235 238 226 206 216 214 201 195 224 232 219 226 241 243 244 242 252 290 317 314 322 324 320 315 309 304
7 350 358 350 345 332 327 326 337 325 293 279 266 293 278 228 235 234 229 228 213 218 225 214 202 223 204 192 214 224 225 224 224 243 271 334 326 323 319 317 313 309 305
18 357 358 351 360 334 325 324 318 286 278 292 258 246 288 290 261 233 233 229 233 227 211 226 235 207 195 196 214 219 223 226 237 200 2 338 328 317 312 311 312 308 302
339 347 333 324 347 348 330 339 329 317 307 299 291 255 294 254 267 278 211 247 258 250 215 235 246 226 234 309 346 8 91 143 160 193 293 314 323 314 312 311 311 309 303
354 357 356 10 16 0 4 356 357 340 323 305 312 304 319 313 299 310 318 319 350 27 28 16 351 34 14 14 324 107 110 106 144 102 314 320 316 309 308 309 313 317 319
349 350 2 358 349 343 339 350 345 342 325 306 300 294 310 308 297 252 208 247 356 97 65 64 337 355 20 8 41 356 26 115 31 344 346 322 308 307 301 302 304 316 332
347 351 5 355 352 345 336 327 323 322 320 321 312 298 284 304 299 299 292 23 7 330 341 147 20 343 336 353 352 84 314 58 40 353 334 305 302 301 296 303 311 318 328
343 340 348 341 335 328 325 325 324 311 301 305 308 300 285 323 21 23 17 4 328 335 303 309 268 230 250 2 351 35 332 22 1 318 296 287 300 303 313 317 317 320 322
327 334 336 334 325 317 314 321 316 306 296 304 308 305 348 73 60 142 167 263 289 243 281 292 299 285 319 320 311 338 325 317 297 350 45 42 9 327 317 312 310 317 321
326 336 323 317 303 314 313 309 310 309 311 303 297 295 324 102 140 167 96 185 141 292 308 322 330 16 339 335 315 282 281 278 279 298 274 261 271 284 293 301 309 321 326
322 321 310 305 314 330 328 326 308 310 310 316 294 309 344 149 212 215 209 255 243 265 289 321 316 327 343 306 305 262 268 282 265 233 244 250 264 275 280 280 292 310 324
313 305 328 323 341 338 347 345 350 355 360 14 21 34 20 335 306 353 337 312 290 270 291 320 353 339 329 315 300 292 287 286 269 215 228 244 250 260 275 276 283 300 320
330 322 328 333 334 340 330 340 353 346 350 346 15 14 18 18 27 28 5 354 15 11 353 331 325 325 312 315 297 302 300 293 287 267 224 236 241 245 254 264 272 290 306
334 356 347 350 346 344 342 2 348 334 349 27 36 34 24 25 25 17 1 2 357 355 337 276 296 294 292 318 309 297 275 269 265 274 226 227 237 238 240 251 250 269 280
11 14 15 2 355 340 18 359 345 9 50 53 43 37 20 25 16 6 360 21 5 327 317 323 320 324 289 298 309 333 340 331 308 293 324 242 240 232 232 240 256 271 335
21 18 17 22 16 24 20 11 23 27 33 39 34 24 32 17 10 351 341 341 336 342 344 336 2 326 292 311 318 308 320 314 318 44 324 297 65 281 244 249 255 92 343
22 28 17 30 44 38 13 10 24 52 57 42 34 23 360 28 356 306 280 286 285 290 302 311 304 295 315 337 338 331 325 329 324 354 330 323 59 18 57 96 122 76 9
49 25 29 41 40 21 2 354 350 346 41 56 37 21 8 29 21 344 333 321 274 265 254 283 292 313 318 340 329 332 331 321 302 289 320 293 48 31 41 131 126 84 35
54 51 29 45 41 25 355 343 335 291 299 89 56 38 26 10 2 345 320 296 308 337 243 260 296 319 307 304 293 305 304 288 313 13 3 300 3 360 6 163 146 77 23
9 25 54 43 32 17 355 347 346 328 308 100 83 51 50 358 339 342 331 4 16 21 23 305 284 292 291 297 284 316 316 328 333 339 21 301 344 360 347 21 153 34 357
288 281 358 66 49 31 10 359 0 15 17 38 61 84 72 352 318 322 336 349 350 346 347 351 334 319 334 15 33 279 299 338 333 330 2 335 14 24 325 327 338 60 322